Weather History for KGAG - June, 2013

Change the Weather History Date:

Wednesday, June 19, 2013

  Actual Average Record
Temperature  
Mean Temperature 73 °F -  
Max Temperature 82 °F 90 °F 108 °F (2011)
Min Temperature 64 °F 63 °F 49 °F (1985)
Cooling Degree Days 8    
Growing Degree Days 23 (Base 50)    
Moisture  
Dew Point 64 °F    
Average Humidity 77    
Maximum Humidity 100    
Minimum Humidity 56    
Precipitation  
Precipitation 0.63 in - - ()
Sea Level Pressure  
Sea Level Pressure 29.93 in    
Wind  
Wind Speed 11 mph (SSE)    
Max Wind Speed 30 mph    
Max Gust Speed 40 mph    
Visibility 9 miles    
Events Rain , Thunderstorm    
Averages and records for this station are not official NWS values.
T = Trace of Precipitation, MM = Missing Value Source: NWS Daily Summary

Daily Weather History Graph

Daily Weather History Graph

Search for Another Location

Airport or City:

Trip Planner

Search our weather history database for the weather conditions in past years. The results will help you decide how hot, cold, wet, or windy it might be!

Date:

Astronomy

Jun. 19, 2013 Rise Set
Actual Time 6:21 AM CDT 8:59 PM CDT
Civil Twilight 5:51 AM CDT 9:30 PM CDT
Nautical Twilight 5:13 AM CDT 10:07 PM CDT
Astronomical Twilight 4:30 AM CDT 10:50 PM CDT
Moon 4:58 PM CDT (6/19) 3:01 AM CDT (6/19)
Length of Visible Light 15h 39m
Length of Day
14h 38m
Waxing Gibbous, 80% of the Moon is Illuminated
Jun 19
Waxing Gibbous
Jun 23
Full
Jun 29
Last Quarter
Jul 8
New
Jul 15
First Quarter

Hourly Weather History & Observations

Time (CDT) Temp. Heat Index Dew Point Humidity Pressure Visibility Wind Dir Wind Speed Gust Speed Precip Events Conditions
12:53 AM 73.0 °F - 63.0 °F 71% 29.91 in 10.0 mi SSE 16.1 mph - N/A   Clear
1:53 AM 72.0 °F - 63.0 °F 73% 29.93 in 10.0 mi SSE 12.7 mph - N/A   Clear
2:53 AM 69.1 °F - 64.9 °F 87% 29.95 in 9.0 mi ESE 6.9 mph - 0.00 in Rain Light Rain
3:16 AM 69.8 °F - 66.2 °F 88% 30.07 in 10.0 mi NW 3.5 mph - 0.01 in Rain , Thunderstorm Light Thunderstorms and Rain
3:28 AM 68.0 °F - 66.2 °F 94% 30.08 in 1.8 mi WSW 6.9 mph - 0.14 in Rain , Thunderstorm Heavy Thunderstorms and Rain
3:48 AM 66.2 °F - 66.2 °F 100% 30.07 in 3.0 mi NNW 10.4 mph - 0.46 in Rain , Thunderstorm Thunderstorms and Rain
3:53 AM 66.9 °F - 66.0 °F 97% 29.99 in 7.0 mi NNW 11.5 mph - 0.46 in Rain , Thunderstorm Light Thunderstorms and Rain
4:25 AM 64.4 °F - 64.4 °F 100% 30.03 in 7.0 mi East 15.0 mph - 0.03 in Rain Rain
4:53 AM 66.9 °F - 64.9 °F 93% 29.94 in 10.0 mi ENE 6.9 mph - 0.03 in Rain Light Rain
5:43 AM 66.2 °F - 64.4 °F 94% 30.05 in 10.0 mi Calm Calm - 0.00 in Rain , Thunderstorm Light Rain
5:53 AM 66.9 °F - 64.9 °F 93% 29.97 in 8.0 mi Calm Calm - 0.00 in Rain , Thunderstorm Light Rain
6:39 AM 66.2 °F - 64.4 °F 94% 30.08 in 9.0 mi NW 11.5 mph - 0.04 in Rain Light Rain
6:53 AM 66.9 °F - 64.9 °F 93% 30.04 in 10.0 mi NW 11.5 mph - 0.05 in Rain Light Rain
7:30 AM 66.2 °F - 64.4 °F 94% 30.03 in 10.0 mi South 23.0 mph - 0.09 in Rain Rain
7:53 AM 66.9 °F - 64.0 °F 90% 29.90 in 10.0 mi South 29.9 mph 40.3 mph 0.09 in Rain Light Rain
8:53 AM 68.0 °F - 59.0 °F 73% 29.80 in 10.0 mi South 27.6 mph 34.5 mph 0.00 in   Clear
9:53 AM 70.0 °F - 60.1 °F 71% 29.86 in 10.0 mi South 15.0 mph 29.9 mph N/A   Clear
10:53 AM 70.0 °F - 63.0 °F 78% 29.91 in 10.0 mi WSW 6.9 mph - N/A   Clear
11:53 AM 73.9 °F - 63.0 °F 68% 29.91 in 10.0 mi NE 5.8 mph - N/A   Clear
12:53 PM 75.9 °F - 63.0 °F 64% 29.92 in 10.0 mi SE 5.8 mph - N/A   Clear
1:53 PM 77.0 °F - 63.0 °F 62% 29.91 in 10.0 mi Variable 3.5 mph - N/A   Clear
2:53 PM 79.0 °F - 64.9 °F 62% 29.89 in 10.0 mi SE 6.9 mph - N/A   Clear
3:53 PM 80.1 °F 81.9 °F 64.9 °F 60% 29.87 in 10.0 mi South 9.2 mph - N/A   Clear
4:53 PM 82.0 °F 83.8 °F 64.9 °F 56% 29.83 in 10.0 mi SSE 11.5 mph - N/A   Clear
5:53 PM 81.0 °F 82.5 °F 64.0 °F 56% 29.82 in 10.0 mi SE 12.7 mph - N/A   Clear
6:53 PM 80.1 °F 81.5 °F 63.0 °F 56% 29.82 in 10.0 mi SE 11.5 mph 20.7 mph N/A   Clear
7:53 PM 77.0 °F - 62.1 °F 60% 29.83 in 10.0 mi SSE 10.4 mph - N/A   Clear
8:53 PM 75.9 °F - 62.1 °F 62% 29.84 in 10.0 mi SE 13.8 mph - N/A   Clear
9:53 PM 73.9 °F - 64.9 °F 73% 29.83 in 10.0 mi SE 8.1 mph - N/A   Clear
10:53 PM 73.0 °F - 61.0 °F 66% 29.86 in 10.0 mi SSE 10.4 mph - N/A   Clear
11:53 PM 73.0 °F - 60.1 °F 64% 29.83 in 10.0 mi SSE 18.4 mph - N/A   Clear